sat.trackr.live / text

‹ back to catalog

STARLINK-36659

NORAD 67833 · 2026-033N

PAYLOAD ACTIVE UNKNOWN

§ Identity

Operator
Country
US
Launch date
2026-02-16
Launch site
AFETR
Launch vehicle
Mass (kg)
RCS (m²)

Purposes: comms

External: N2YO · Heavens-Above · Gunter

§ Orbital elements

Epoch: 2026-05-25T04:15:03.254400Z

Period
94.27 min
Inclination
43.0010°
Eccentricity
0.0001404
Mean motion
15.27575318 rev/d
Perigee alt
482.1 km
Apogee alt
484.0 km
Semi-major
6,861.2 km
B*
6.4788e-4
RAAN
194.9221°
Arg perigee
259.2371°
Mean anomaly
100.8323°
Rev number
1,637

§ Raw data

STARLINK-366591 67833U 26033N   26145.17712100  .00017606  00000+0  64788-3 0  99932 67833  43.0010 194.9221 0001404 259.2371 100.8323 15.27575318 16371

JSON: /api/v1/satellites/67833 · /tle

For live sub-satellite position, see the globe view (requires WebGL).

§ Visibility from observer

Set your observer location to see the next 7 days of passes ≥ 10°. The values pass through the URL so the page stays shareable.

No JS? Fill the form by hand. The geolocation button needs JavaScript.